SCP
0 0 0 0 0 0 0 0 0 0 0 0 0 0 0 0 0 0 1 1 2 2 3 3 2 2 2 2 3 3 3 3 4 4 4 4 4 3 3 3 3 3 3
1 1 0 0 0 0 0 0 0 0 0 0 0 0 0 0 0 0 1 1 2 2 3 3 3 3 3 2 2 3 3 3 4 4 4 4 4 4 3 3 3 3 3
1 1 1 0 0 0 0 0 0 0 0 0 0 0 0 0 0 0 0 1 1 2 2 3 3 3 3 2 2 2 3 3 4 4 4 4 4 4 4 3 3 3 3
1 1 1 0 0 0 0 0 0 0 0 0 0 0 0 0 0 0 0 0 0 1 1 2 3 3 3 2 2 2 2 3 3 3 3 3 3 3 3 3 3 3 3
1 1 0 0 0 0 0 0 0 0 0 0 0 0 0 0 0 0 0 0 0 0 0 1 2 3 2 2 1 1 1 2 2 2 2 2 2 2 2 3 3 3 3
1 0 0 0 0 0 0 0 0 0 0 0 0 0 0 0 0 0 0 0 0 0 0 0 1 1 1 1 1 1 1 1 1 1 1 1 1 2 2 2 2 2 2
0 0 0 0 0 0 0 0 0 0 0 0 0 0 0 0 0 0 0 0 0 0 0 0 0 0 0 0 0 0 0 0 0 1 1 1 1 1 1 1 1 1 1
0 0 0 0 0 0 0 0 0 0 0 0 0 0 0 0 0 0 0 0 0 0 0 0 0 0 0 0 0 0 0 0 0 0 0 1 1 1 0 0 0 0 0
0 0 0 0 0 0 0 0 0 0 0 0 0 0 0 0 0 0 0 0 0 0 0 0 0 0 0 0 0 0 0 0 0 0 0 1 1 0 0 0 0 0 0
0 0 0 0 0 0 0 0 0 0 0 0 0 0 0 0 0 0 0 0 0 0 0 0 0 0 0 0 0 0 0 0 0 0 0 0 1 0 0 0 0 0 0
0 0 0 0 0 0 0 0 0 0 0 0 0 0 0 0 0 0 0 0 0 0 0 0 0 0 0 0 0 0 0 0 0 0 0 0 0 0 0 0 0 0 0
0 0 0 0 0 0 0 0 0 0 0 0 0 0 0 0 0 0 0 0 0 0 0 0 0 0 0 0 0 0 0 0 0 1 0 0 0 0 0 0 0 0 0
0 0 0 0 0 0 0 0 0 0 0 0 0 0 0 0 0 0 0 0 0 0 0 0 0 0 0 0 0 0 0 0 0 1 1 0 0 0 0 0 0 0 0
0 0 0 0 0 0 0 0 0 0 0 0 0 0 0 0 0 0 0 0 0 0 0 0 0 0 0 0 0 0 0 0 0 0 0 0 0 0 0 0 0 0 0
0 0 0 0 0 0 0 0 0 0 0 0 0 0 0 0 0 0 0 0 0 0 0 0 0 0 0 0 0 0 0 0 0 0 0 0 0 0 0 0 0 0 0
0 0 0 0 0 0 0 0 0 0 0 0 0 0 0 0 0 0 0 0 0 0 0 0 0 0 0 0 0 0 0 0 0 0 0 0 0 0 0 0 0 0 0
0 0 0 0 0 0 0 0 0 0 0 0 0 0 0 0 0 0 0 0 0 0 0 0 0 0 0 0 0 0 0 0 0 0 0 0 0 0 0 0 0 0 0
0 0 0 0 0 0 0 0 0 0 0 0 0 0 0 0 0 0 0 0 0 0 0 0 0 0 0 0 0 0 0 0 0 0 0 0 0 0 0 0 0 0 0
0 0 0 0 0 0 0 0 0 0 0 0 0 0 0 0 0 0 0 0 0 0 0 0 0 0 0 0 0 0 0 0 0 0 0 0 0 0 0 0 0 0 0
0 0 0 0 0 0 0 0 0 0 0 0 0 0 0 0 0 0 0 0 0 0 0 0 0 0 0 0 0 0 0 0 0 0 0 0 0 0 0 0 0 0 0
0 0 0 0 0 0 0 0 0 0 0 0 0 0 0 0 0 0 0 0 0 0 0 0 0 0 0 0 0 0 0 0 0 0 0 0 0 0 0 0 0 0 0
0 0 0 0 0 0 0 0 0 0 0 0 0 0 0 0 0 0 0 0 0 0 0 0 0 0 0 0 0 0 0 0 0 0 0 0 0 0 0 0 0 0 0
0 0 0 0 0 0 0 0 0 0 0 0 0 0 0 0 0 0 0 0 0 0 0 0 0 0 0 0 0 0 0 0 0 0 0 0 0 0 0 0 0 0 0
0 0 0 0 0 0 0 0 0 0 0 0 0 0 0 0 0 0 0 0 0 0 0 0 0 0 0 0 0 0 0 0 0 0 0 0 0 0 0 0 0 0 0
0 0 0 0 0 0 0 0 0 0 0 0 0 0 0 0 0 0 0 0 0 0 0 0 0 0 0 0 0 0 0 0 0 0 0 0 0 0 0 0 0 0 0
0 0 0 0 0 0 0 0 0 0 0 0 0 0 0 0 0 0 0 0 0 0 0 0 0 0 0 0 0 0 0 0 0 0 0 0 0 0 0 0 0 0 0
Wind_Speed
4 4 3 3 3 2 2 2 2 1 1 1 1 3 4 3 2 2 2 8 9 10 11 12 12 11 11 11 10 10 9 8 8 7 7 7 7 7 8 9 10 11 13
5 5 4 3 2 3 3 2 2 3 3 2 4 4 4 3 2 1 1 3 7 9 10 11 12 12 12 11 9 7 6 5 4 3 2 2 2 4 5 6 7 10 12
7 6 4 3 3 3 4 4 4 3 3 3 4 4 3 3 3 2 1 2 4 8 11 11 11 10 11 10 8 7 6 5 4 3 2 2 2 3 3 4 5 7 9
7 5 4 3 3 3 3 4 3 3 4 4 3 3 4 3 4 3 2 2 2 3 6 8 9 8 8 8 8 8 8 7 7 6 5 4 3 2 3 4 5 6 8
7 6 5 4 4 4 4 4 4 3 3 4 3 3 4 4 4 5 5 5 4 4 3 6 7 5 6 7 7 9 10 10 9 9 9 9 6 3 2 3 5 7 9
8 7 5 6 5 5 4 4 5 4 3 3 4 4 4 4 3 4 5 5 5 6 6 6 6 8 11 10 10 10 10 10 10 10 11 11 10 6 4 5 7 8 10
8 8 6 6 5 5 4 4 3 5 5 4 4 4 4 4 3 3 3 4 5 6 5 5 4 4 4 10 11 12 13 13 13 13 13 13 12 9 8 8 9 11 12
8 8 7 6 5 5 6 6 4 3 3 4 3 2 4 5 4 3 3 4 5 5 6 7 6 5 4 3 8 14 14 14 15 16 16 15 13 12 11 11 12 13 14
9 8 7 6 6 5 5 5 5 4 3 3 4 3 2 2 4 4 3 4 5 4 4 4 5 5 6 4 4 10 15 15 16 17 18 17 16 14 14 14 14 15 16
8 7 7 7 6 5 5 4 4 3 3 2 2 2 2 2 1 4 5 3 4 4 4 5 5 5 5 4 7 13 16 15 16 18 19 19 19 18 17 16 15 16 18
6 7 6 6 5 4 4 4 3 3 2 2 1 1 1 1 1 2 4 6 5 4 4 4 4 4 5 5 5 10 17 16 15 16 16 18 19 20 19 17 17 17 18
4 5 6 5 4 3 3 2 2 3 1 1 1 1 1 1 2 2 4 5 5 6 6 5 5 5 5 5 9 18 20 18 15 14 15 16 17 18 19 18 18 18 19
3 4 4 4 3 2 1 2 1 1 1 2 3 3 3 4 4 3 4 5 5 4 4 4 5 5 6 5 7 19 20 20 17 15 14 15 17 18 19 19 19 19 19
4 4 4 3 2 1 1 2 1 2 2 3 5 5 4 5 4 4 4 5 6 5 4 6 4 5 6 6 10 17 12 19 19 17 16 16 17 19 20 20 20 20 19
4 4 3 2 1 1 2 2 2 3 3 3 4 4 3 4 4 4 3 3 4 8 7 4 4 4 5 6 11 7 7 13 19 18 18 17 18 19 20 20 20 20 19
4 3 2 1 1 2 2 1 2 3 3 3 3 3 3 3 3 3 2 2 3 4 7 3 4 5 7 10 14 9 7 20 21 21 21 20 19 20 21 21 21 20 20
3 3 2 2 3 4 5 5 5 5 5 4 4 4 5 4 3 3 3 3 3 3 8 7 4 5 6 8 10 9 9 9 10 21 22 21 20 19 20 19 19 18 17
5 5 5 6 7 7 6 6 5 5 4 5 6 5 6 5 5 5 4 4 5 5 6 11 7 5 7 8 9 10 10 10 8 15 18 17 17 16 15 14 14 13 13
7 6 6 6 6 5 4 3 3 3 4 5 5 6 7 6 7 6 6 6 5 7 6 9 11 6 6 7 7 9 10 7 9 10 10 10 10 10 9 8 8 9 11
6 6 5 5 4 4 3 2 2 3 5 6 6 6 7 7 7 7 6 7 7 7 8 9 10 8 7 7 6 6 7 5 6 8 9 10 10 10 10 9 10 11 12
5 4 4 3 3 2 1 1 3 5 6 7 8 8 8 12 13 9 8 7 7 8 8 9 10 9 8 6 6 6 8 7 7 6 6 6 5 4 6 9 12 13 13
5 5 4 2 0 1 2 3 5 5 6 7 9 9 9 10 12 16 17 18 17 13 12 11 10 10 10 8 7 7 7 8 7 4 4 6 4 5 5 5 12 15 14
4 4 3 2 2 3 4 5 8 6 6 7 8 8 9 10 12 8 13 18 18 21 20 14 12 11 11 9 9 10 9 10 10 6 4 7 5 7 7 8 14 14 14
2 2 2 3 3 4 5 6 9 7 7 8 8 8 9 9 9 10 12 13 13 13 14 11 10 11 11 10 10 10 11 10 9 8 7 6 5 6 6 5 10 13 13
2 2 2 4 4 4 6 6 8 5 6 8 9 9 10 9 12 15 13 12 13 12 13 12 12 12 13 12 9 6 6 6 6 4 3 3 2 2 2 3 6 11 13
2 3 4 4 4 2 4 7 9 4 6 7 8 9 12 11 14 16 11 10 11 10 10 9 8 7 6 5 6 4 4 5 4 3 2 1 1 1 2 2 2 3 5
Wind_Direction
181 178 182 196 214 198 199 232 242 218 169 137 97 89 84 87 113 159 205 210 215 217 215 216 221 223 223 224 222 221 222 223 225 227 230 234 237 238 237 233 228 218 212
167 165 166 177 190 173 162 149 127 109 95 87 65 59 70 74 84 153 234 241 239 238 235 232 233 237 238 238 237 235 236 237 238 242 254 272 275 272 265 256 246 234 226
148 146 146 153 157 137 124 109 94 80 68 47 34 22 27 26 36 30 305 280 282 273 262 251 244 243 247 250 252 253 254 259 265 270 277 293 315 333 334 312 288 268 251
129 122 116 106 95 89 92 89 71 65 49 34 13 0 7 6 7 359 359 339 310 295 290 280 262 250 250 258 261 264 265 264 260 261 263 267 282 312 336 332 323 307 290
102 98 89 76 74 68 59 65 53 58 43 18 357 7 5 356 354 6 12 9 2 354 349 352 354 339 300 292 295 291 286 277 270 264 260 258 256 259 298 327 325 317 307
98 93 83 71 69 68 55 56 59 47 43 14 1 356 341 347 11 31 27 22 20 22 21 24 20 18 18 8 354 334 311 294 284 276 268 261 257 252 261 282 296 302 302
90 84 82 67 63 68 61 56 59 47 28 15 24 352 340 359 30 45 31 29 19 14 17 22 19 13 359 0 353 341 328 313 301 287 274 264 256 252 256 269 281 289 291
85 85 81 73 67 72 59 50 53 57 24 26 51 33 353 343 344 4 9 26 13 8 12 16 17 12 359 353 341 342 335 324 312 299 287 276 264 258 261 267 273 281 284
81 82 80 76 70 75 77 68 65 77 52 23 50 91 73 308 314 321 352 17 8 10 0 356 10 6 3 357 338 336 329 319 308 297 289 281 271 263 260 264 270 275 280
90 89 85 83 82 86 87 79 81 87 90 48 25 50 126 184 256 313 321 336 350 351 338 340 338 331 334 331 328 333 329 320 312 301 290 280 273 268 265 263 264 270 275
95 99 94 90 93 94 96 89 88 83 98 114 84 25 16 18 149 193 292 314 321 312 302 300 302 305 308 309 309 311 321 320 315 309 299 287 278 271 268 263 260 264 271
93 95 93 91 101 102 100 97 90 77 86 127 191 200 200 242 259 233 254 278 289 293 299 296 292 288 289 292 297 307 306 306 302 299 299 294 289 282 275 270 267 267 271
103 100 93 97 102 105 99 96 83 8 267 249 243 240 231 229 230 236 256 271 270 272 278 277 268 274 282 280 290 296 297 296 290 284 282 282 283 283 281 276 272 269 269
118 119 110 115 130 134 137 162 203 248 243 244 250 246 247 253 248 246 253 274 288 281 262 262 269 263 272 276 277 288 288 292 291 286 278 273 275 276 276 273 270 266 264
114 119 125 149 200 227 231 222 242 263 281 281 279 279 275 277 279 272 265 253 272 296 294 270 277 276 279 277 278 278 273 289 296 292 284 275 271 270 267 265 262 260 256
107 118 123 153 288 303 306 312 331 348 6 350 333 337 319 299 300 294 283 270 247 269 289 269 266 274 287 295 295 294 286 294 292 288 283 278 271 266 263 259 257 254 250
103 87 66 49 44 41 43 53 50 39 29 2 347 339 318 304 292 285 276 266 260 257 284 289 257 269 276 281 289 286 283 277 277 281 280 277 273 268 263 259 255 250 243
57 50 53 65 75 74 67 61 39 23 4 341 326 320 308 305 292 277 269 264 261 254 264 289 291 278 273 275 277 280 286 285 278 281 281 280 278 273 267 261 254 244 236
62 58 66 82 92 87 76 61 35 359 333 314 305 301 296 296 291 284 277 272 269 275 264 278 287 278 271 273 279 282 284 282 285 287 291 299 304 302 288 271 261 248 237
69 69 81 103 110 101 82 38 358 334 323 312 304 298 296 293 288 288 289 282 282 282 278 277 282 282 274 268 265 274 286 277 282 292 292 289 288 289 284 273 262 253 242
76 74 81 105 138 127 117 339 331 335 326 319 315 308 303 306 311 311 310 300 296 290 287 284 285 284 279 273 267 267 277 280 274 266 270 271 268 265 269 268 265 259 249
67 60 60 67 56 246 255 314 341 329 319 314 311 309 306 305 311 316 314 310 305 299 295 287 285 283 282 273 270 269 271 275 278 249 237 259 242 252 253 248 255 255 249
65 57 48 38 339 279 274 317 340 332 313 304 301 303 308 310 314 305 308 308 302 296 291 287 285 283 282 277 274 274 268 266 266 254 239 259 248 254 253 255 251 243 242
65 49 19 0 339 318 327 339 338 328 307 300 300 298 299 302 307 311 310 303 297 294 289 286 276 275 275 275 271 273 275 272 266 258 236 251 244 245 252 244 243 239 237
47 21 359 359 359 353 14 2 347 317 305 305 306 306 307 304 307 314 312 304 301 299 300 291 281 281 283 286 289 285 284 283 280 268 226 234 242 253 260 253 247 240 236
45 20 14 15 27 27 13 353 347 317 312 313 310 308 309 308 312 316 315 307 305 308 311 314 311 308 304 309 322 316 313 306 300 296 347 312 272 268 283 270 253 238 233